This is the latest recevied weather packets stored in our database for station/object K5SVV. If no packets are shown the sender has not sent any weather packets the latest 10 day(s).
| Time | Temp. | Humidity | Pressure | Rain* | Wind** | Luminosity | Snow |
|---|---|---|---|---|---|---|---|
| 1778014949 | 30° C | 71% | 1004 hPa | 0 mm | - | 537 W/m² | - |
| 1778014647 | 30° C | 71% | 1003.9 hPa | 0 mm | - | 609 W/m² | - |
| 1778014345 | 30° C | 71% | 1003.7 hPa | 0 mm | - | 717 W/m² | - |
| 1778014041 | 30° C | 71% | 1003.8 hPa | 0 mm | - | 454 W/m² | - |
| 1778013739 | 30° C | 70% | 1004.3 hPa | 0 mm | - | 669 W/m² | - |
| 1778013436 | 30.56° C | 70% | 1004.1 hPa | 0 mm | - | 668 W/m² | - |
| 1778013133 | 30° C | 73% | 1004.3 hPa | 0 mm | - | 715 W/m² | - |
| 1778012828 | 30° C | 71% | 1004.3 hPa | 0 mm | - | 704 W/m² | - |
| 1778012525 | 30° C | 72% | 1004.3 hPa | 0 mm | - | 787 W/m² | - |
| 1778012221 | 30° C | 73% | 1004.1 hPa | 0 mm | - | 760 W/m² | - |
| 1778011919 | 29.44° C | 71% | 1004.4 hPa | 0 mm | - | 768 W/m² | - |
| 1778011617 | 29.44° C | 74% | 1004.2 hPa | 0 mm | - | 615 W/m² | - |
| 1778011314 | 29.44° C | 73% | 1004.4 hPa | 0 mm | - | 558 W/m² | - |
| 1778011009 | 29.44° C | 72% | 1004.3 hPa | 0 mm | - | 588 W/m² | - |
| 1778010707 | 28.89° C | 73% | 1004.4 hPa | 0 mm | - | 700 W/m² | - |
| 1778010404 | 28.89° C | 73% | 1004.5 hPa | 0 mm | - | 693 W/m² | - |
| 1778010100 | 28.89° C | 74% | 1004.6 hPa | 0 mm | - | 530 W/m² | - |
| 1778009797 | 28.89° C | 73% | 1004.4 hPa | 0 mm | - | 629 W/m² | - |
| 1778009494 | 28.89° C | 73% | 1004.5 hPa | 0 mm | - | 715 W/m² | - |
| 1778009193 | 28.89° C | 74% | 1004.5 hPa | 0 mm | - | 780 W/m² | - |
| 1778008889 | 28.33° C | 72% | 1004.7 hPa | 0 mm | - | 557 W/m² | - |
| 1778008588 | 28.89° C | 73% | 1004.7 hPa | 0 mm | - | 443 W/m² | - |
| 1778008286 | 28.33° C | 75% | 1004.7 hPa | 0 mm | - | 503 W/m² | - |
| 1778007981 | 28.33° C | 75% | 1004.6 hPa | 0 mm | - | 576 W/m² | - |
| 1778007676 | 28.33° C | 73% | 1004.8 hPa | 0 mm | - | 660 W/m² | - |
* Rain latest hour (hover to see other rain measurements)
** Current wind speed in m/s (hover to see current wind gust speed)